logo
Rechercher aéroport 
image banner adimage banner adimage banner ad
image banner ad

CA26 - Hall Of Justice

Situé à San Francisco, United States

ICAO - CA26, IATA -

Données fournies par Airmate  

Information générale

Coordonnées: N37°46'30" W122°24'15"
Élévation : 118 feet MSL.
Variation magnétique : 16° East
Voir autres Aéroports à California

Données opérationnelles

Special qualification required
Heure actuelle UTC:
Heure actuelle locale:
Météo à : KOAK - Metropolitan Oakland Intl ( 17 km )
METAR: KOAK 050153Z 25007KT 10SM FEW012 BKN060 OVC080 12/08 A3009 RMK AO2 SLP190 T01220083
TAF: KOAK 040533Z 0406/0512 18008KT 4SM BR VCSH BKN020 FM040900 17010KT 2SM -RA BR OVC020 FM041500 18007KT P6SM VCSH OVC025 FM042100 23010KT P6SM SCT030 BKN050 FM050200 21008KT P6SM VCSH BKN050 FM050800 18005KT P6SM VCSH BKN030
Voir NOTAMs / SUP AIP / TFR affectant cet aéroport [VIEW]
Fréquences de communication: [VIEW]

Pistes:

Coordonnées de l'aéroport

Adresse: San Francisco United States

Vue satellite de CA26